When you browse on this site, cookies collect data to enhance your experience and personalize the content and advertising you see.
Visit our Privacy Policy to learn more. By continuing to use the site, you agree to this use of cookies and data.
  • In Spain
  • List of Countries
  • For 7 days
  • Water Temperature
  • Satellite Maps
  • Weather Map
  • Weather Widgets
  • user-avatar
    Login

    Hourly Weather Akka

    Today, 21 July, Sunday

    Time Temperature Precipitation Wind Pressure Humidity
    00:00 +25°C° 0 mm 2 mps 757 mmHg 87%
    01:00 +25°C° 0 mm 2 mps 757 mmHg 87%
    02:00 +25°C° 0 mm 2 mps 756 mmHg 88%
    03:00 +25°C° 0 mm 2 mps 756 mmHg 88%
    04:00 +25°C° 0 mm 2 mps 756 mmHg 88%
    05:00 +24°C° 0 mm 1 mps 756 mmHg 88%
    06:00 +26°C° 0 mm 2 mps 756 mmHg 79%
    07:00 +28°C° 0 mm 3 mps 756 mmHg 71%
    08:00 +30°C° 0 mm 3 mps 756 mmHg 63%
    09:00 +32°C° 0 mm 4 mps 756 mmHg 59%
    10:00 +33°C° 0 mm 4 mps 756 mmHg 56%
    11:00 +34°C° 0 mm 5 mps 756 mmHg 53%
    12:00 +34°C° 0 mm 5 mps 756 mmHg 54%
    13:00 +33°C° 0 mm 5 mps 756 mmHg 56%
    14:00 +33°C° 0 mm 6 mps 755 mmHg 57%
    15:00 +32°C° 0 mm 5 mps 755 mmHg 61%
    16:00 +32°C° 0 mm 5 mps 755 mmHg 65%
    17:00 +30°C° 0 mm 5 mps 755 mmHg 69%
    18:00 +29°C° 0 mm 4 mps 755 mmHg 76%
    19:00 +27°C° 0 mm 3 mps 755 mmHg 83%
    20:00 +26°C° 0 mm 3 mps 755 mmHg 89%
    21:00 +26°C° 0 mm 2 mps 755 mmHg 89%
    22:00 +26°C° 0 mm 2 mps 755 mmHg 89%
    23:00 +25°C° 0 mm 1 mps 755 mmHg 89%

    Tomorrow, 22 July, Monday

    Time Temperature Precipitation Wind Pressure Humidity
    00:00 +25°C° 0 mm 1 mps 755 mmHg 89%
    01:00 +25°C° 0 mm 1 mps 755 mmHg 89%
    02:00 +25°C° 0 mm 1 mps 755 mmHg 88%
    03:00 +25°C° 0 mm 1 mps 755 mmHg 88%
    04:00 +24°C° 0 mm 1 mps 754 mmHg 88%
    05:00 +24°C° 0 mm 1 mps 754 mmHg 88%
    06:00 +26°C° 0 mm 2 mps 755 mmHg 79%
    07:00 +28°C° 0 mm 3 mps 755 mmHg 70%
    08:00 +31°C° 0 mm 3 mps 755 mmHg 61%
    09:00 +33°C° 0 mm 4 mps 755 mmHg 59%
    10:00 +34°C° 0 mm 4 mps 755 mmHg 56%
    11:00 +35°C° 0 mm 5 mps 755 mmHg 53%
    12:00 +35°C° 0 mm 5 mps 755 mmHg 53%
    13:00 +35°C° 0 mm 5 mps 754 mmHg 52%
    14:00 +35°C° 0 mm 5 mps 754 mmHg 52%
    15:00 +34°C° 0 mm 5 mps 754 mmHg 55%
    16:00 +33°C° 0 mm 5 mps 753 mmHg 58%
    17:00 +32°C° 0 mm 5 mps 753 mmHg 62%
    18:00 +30°C° 0 mm 4 mps 753 mmHg 69%
    19:00 +28°C° 0 mm 4 mps 753 mmHg 76%
    20:00 +27°C° 0 mm 3 mps 754 mmHg 84%
    21:00 +26°C° 0 mm 3 mps 753 mmHg 81%
    22:00 +26°C° 0 mm 2 mps 753 mmHg 78%
    23:00 +26°C° 0 mm 1 mps 753 mmHg 75%

    Day after tomorrow, 23 July, Tuesday

    Time Temperature Precipitation Wind Pressure Humidity
    00:00 +26°C° 0 mm 1 mps 753 mmHg 75%
    01:00 +26°C° 0 mm 2 mps 753 mmHg 75%
    02:00 +26°C° 0 mm 2 mps 752 mmHg 74%
    03:00 +26°C° 0 mm 2 mps 752 mmHg 77%
    04:00 +25°C° 0 mm 1 mps 753 mmHg 79%
    05:00 +25°C° 0 mm 1 mps 753 mmHg 82%
    06:00 +27°C° 0 mm 1 mps 753 mmHg 71%
    07:00 +30°C° 0 mm 1 mps 753 mmHg 60%
    08:00 +32°C° 0 mm 2 mps 753 mmHg 49%
    09:00 +34°C° 0 mm 2 mps 753 mmHg 47%
    10:00 +36°C° 0 mm 3 mps 753 mmHg 44%
    11:00 +37°C° 0 mm 4 mps 753 mmHg 41%
    12:00 +36°C° 0 mm 5 mps 753 mmHg 42%
    13:00 +36°C° 0 mm 5 mps 753 mmHg 43%
    14:00 +36°C° 0 mm 6 mps 752 mmHg 43%
    15:00 +35°C° 0 mm 6 mps 752 mmHg 47%
    16:00 +34°C° 0 mm 6 mps 752 mmHg 50%
    17:00 +33°C° 0 mm 6 mps 752 mmHg 53%
    18:00 +32°C° 0 mm 5 mps 752 mmHg 61%
    19:00 +29°C° 0 mm 5 mps 752 mmHg 69%
    20:00 +27°C° 0 mm 5 mps 753 mmHg 77%
    21:00 +27°C° 0 mm 4 mps 753 mmHg 79%
    22:00 +26°C° 0 mm 3 mps 753 mmHg 82%
    23:00 +26°C° 0 mm 2 mps 753 mmHg 84%

    24 July, Wednesday

    Time Temperature Precipitation Wind Pressure Humidity
    00:00 +26°C° 0 mm 1 mps 753 mmHg 85%
    01:00 +25°C° 0 mm 1 mps 753 mmHg 86%
    02:00 +25°C° 0 mm 1 mps 753 mmHg 87%
    03:00 +25°C° 0 mm 1 mps 753 mmHg 88%
    04:00 +24°C° 0 mm 1 mps 753 mmHg 89%
    05:00 +24°C° 0 mm 1 mps 753 mmHg 91%
    06:00 +26°C° 0 mm 2 mps 753 mmHg 80%
    07:00 +28°C° 0 mm 2 mps 753 mmHg 70%
    08:00 +31°C° 0 mm 3 mps 753 mmHg 60%
    09:00 +33°C° 0 mm 3 mps 753 mmHg 55%
    10:00 +34°C° 0 mm 4 mps 753 mmHg 50%
    11:00 +36°C° 0 mm 4 mps 753 mmHg 45%
    12:00 +35°C° 0 mm 5 mps 753 mmHg 46%
    13:00 +35°C° 0 mm 5 mps 753 mmHg 47%
    14:00 +35°C° 0 mm 5 mps 753 mmHg 48%
    15:00 +34°C° 0 mm 5 mps 753 mmHg 52%
    16:00 +33°C° 0 mm 4 mps 753 mmHg 57%
    17:00 +32°C° 0 mm 4 mps 753 mmHg 61%
    18:00 +29°C° 0 mm 3 mps 753 mmHg 69%
    19:00 +28°C° 0 mm 3 mps 753 mmHg 77%
    20:00 +26°C° 0 mm 2 mps 754 mmHg 85%
    21:00 +26°C° 0 mm 2 mps 754 mmHg 84%
    22:00 +25°C° 0 mm 1 mps 754 mmHg 83%
    23:00 +25°C° 0 mm 1 mps 754 mmHg 82%

    25 July, Thursday

    Time Temperature Precipitation Wind Pressure Humidity
    00:00 +25°C° 0 mm 1 mps 754 mmHg 80%
    01:00 +25°C° 0 mm 1 mps 754 mmHg 79%
    02:00 +24°C° 0 mm 1 mps 753 mmHg 78%
    03:00 +24°C° 0 mm 1 mps 754 mmHg 78%
    04:00 +24°C° 0 mm 1 mps 754 mmHg 77%
    05:00 +22°C° 0 mm 0 mps 754 mmHg 76%
    06:00 +26°C° 0 mm 1 mps 754 mmHg 67%
    07:00 +29°C° 0 mm 2 mps 754 mmHg 58%
    08:00 +31°C° 0 mm 2 mps 755 mmHg 49%
    09:00 +33°C° 0 mm 3 mps 755 mmHg 45%
    10:00 +34°C° 0 mm 3 mps 755 mmHg 42%
    11:00 +36°C° 0 mm 4 mps 754 mmHg 39%
    12:00 +35°C° 0 mm 4 mps 754 mmHg 41%
    13:00 +35°C° 0 mm 5 mps 754 mmHg 42%
    14:00 +35°C° 0 mm 5 mps 754 mmHg 44%
    15:00 +34°C° 0 mm 5 mps 754 mmHg 48%
    16:00 +33°C° 0 mm 5 mps 754 mmHg 52%
    17:00 +32°C° 0 mm 5 mps 753 mmHg 56%
    18:00 +29°C° 0 mm 4 mps 754 mmHg 64%
    19:00 +28°C° 0 mm 3 mps 754 mmHg 72%
    20:00 +26°C° 0 mm 2 mps 754 mmHg 81%
    21:00 +26°C° 0 mm 2 mps 754 mmHg 78%
    22:00 +25°C° 0 mm 2 mps 754 mmHg 75%
    23:00 +25°C° 0 mm 2 mps 754 mmHg 73%

    26 July, Friday

    Time Temperature Precipitation Wind Pressure Humidity
    00:00 +25°C° 0 mm 2 mps 754 mmHg 73%
    01:00 +25°C° 0 mm 2 mps 754 mmHg 73%
    02:00 +25°C° 0 mm 2 mps 754 mmHg 73%
    03:00 +25°C° 0 mm 2 mps 754 mmHg 73%
    04:00 +25°C° 0 mm 1 mps 754 mmHg 73%
    05:00 +24°C° 0 mm 1 mps 754 mmHg 73%
    06:00 +27°C° 0 mm 1 mps 754 mmHg 67%
    07:00 +29°C° 0 mm 2 mps 754 mmHg 60%
    08:00 +31°C° 0 mm 3 mps 754 mmHg 54%
    09:00 +33°C° 0 mm 3 mps 754 mmHg 51%
    10:00 +34°C° 0 mm 4 mps 754 mmHg 48%
    11:00 +36°C° 0 mm 4 mps 754 mmHg 45%
    12:00 +35°C° 0 mm 4 mps 753 mmHg 47%
    13:00 +35°C° 0 mm 5 mps 753 mmHg 48%
    14:00 +35°C° 0 mm 5 mps 753 mmHg 49%
    15:00 +34°C° 0 mm 5 mps 753 mmHg 53%
    16:00 +33°C° 0 mm 5 mps 752 mmHg 57%
    17:00 +32°C° 0 mm 5 mps 752 mmHg 61%
    18:00 +30°C° 0 mm 4 mps 752 mmHg 70%
    19:00 +28°C° 0 mm 4 mps 752 mmHg 78%
    20:00 +27°C° 0 mm 3 mps 753 mmHg 87%
    21:00 +26°C° 0 mm 3 mps 752 mmHg 87%
    22:00 +26°C° 0 mm 3 mps 752 mmHg 87%
    23:00 +26°C° 0 mm 2 mps 752 mmHg 87%
    Show more